マクノート彗星

P/2013 J2 ( McNaught )

English version
Home page
Updated on May 16, 2015

---------------------------------------------------------------------

・ プロフィール

発見日 2013年5月8日
発見光度 18.2等
発見者 Robert H. McNaught (Siding Spring)

・ 写真集

・ 軌道要素

Epoch 2013 Aug. 16.0 TT = JDT 2456520.5
T 2013 Aug. 22.99764 TT                                 MPCW
q   2.1478340            (2000.0)            P               Q
n   0.06312570     Peri.   37.88916     +0.82029000     +0.51343712
a   6.2469100      Node   289.39343     -0.56796149     +0.67931128
e   0.6561766      Incl.   15.49557     -0.06740966     +0.52432672
P  15.6
From 1555 observations 2013 May 8-2014 Dec. 29, mean residual 0".4.

・ 星図

・ 光度変化

        m1 = 7.5 + 5 logΔ + 20.0 log r(t - 60)

---------------------------------------------------------------------

軌道要素はM.P.E.C. 2015-A04に掲載されたものです。
星図はステラナビゲータ Ver.8 (アストロアーツ) で作成したものです。
光度グラフはComet for Windowsで作成したものです。

---------------------------------------------------------------------

Copyright(C) Seiichi Yoshida (comet@aerith.net). All rights reserved.